Weather History for KCCR - March, 2014

Change the Weather History Date:

Friday, March 28, 2014

  Actual Average Record
Temperature  
Mean Temperature 61 °F 56 °F  
Max Temperature 70 °F 67 °F 80 °F (2009)
Min Temperature 51 °F 45 °F 36 °F (2007)
Degree Days  
Heating Degree Days 4    
Month to date heating degree days 170  
Since 1 July heating degree days 1916  
Cooling Degree Days 0    
Month to date cooling degree days 0  
Year to date cooling degree days 0  
Growing Degree Days 10 (Base 50)    
Moisture  
Dew Point 49 °F    
Average Humidity 71    
Maximum Humidity 96    
Minimum Humidity 45    
Precipitation  
Precipitation T in - - ()
Month to date precipitation 0.92  
Year to date precipitation 5.51  
Since 1 July precipitation 7.99  
Sea Level Pressure  
Sea Level Pressure 30.10 in    
Wind  
Wind Speed 9 mph (SSW)    
Max Wind Speed 16 mph    
Max Gust Speed 21 mph    
Visibility 10 miles    
Events Rain    
T = Trace of Precipitation, MM = Missing Value Source: NWS Daily Summary

Daily Weather History Graph

Daily Weather History Graph

Search for Another Location

Airport or City:

Trip Planner

Search our weather history database for the weather conditions in past years. The results will help you decide how hot, cold, wet, or windy it might be!

Date:

Astronomy

Mar. 28, 2014 Rise Set
Actual Time 6:59 AM PDT 7:27 PM PDT
Civil Twilight 6:32 AM PDT 7:54 PM PDT
Nautical Twilight 6:01 AM PDT 8:25 PM PDT
Astronomical Twilight 5:30 AM PDT 8:57 PM PDT
Moon 5:31 AM PDT (3/28) 5:32 PM PDT (3/28)
Length of Visible Light 13h 21m
Length of Day
12h 28m
Waning Crescent, 5% of the Moon is Illuminated
Mar 28
Waning Crescent
Mar 30
New
Apr 7
First Quarter
Apr 15
Full
Apr 22
Last Quarter

Hourly Weather History & Observations

Time (PDT) Temp. Dew Point Humidity Pressure Visibility Wind Dir Wind Speed Gust Speed Precip Events Conditions
12:53 AM 54.0 °F 48.0 °F 80% 30.09 in 10.0 mi South 4.6 mph - N/A   Mostly Cloudy
1:53 AM 55.0 °F 46.9 °F 74% 30.11 in 9.0 mi South 5.8 mph - 0.00 in Rain Light Rain
2:53 AM 54.0 °F 48.9 °F 83% 30.09 in 10.0 mi South 9.2 mph - 0.00 in   Overcast
3:53 AM 53.1 °F 50.0 °F 89% 30.09 in 10.0 mi SSW 9.2 mph - N/A   Mostly Cloudy
4:53 AM 53.1 °F 51.1 °F 93% 30.09 in 6.0 mi SSE 9.2 mph - 0.00 in Rain Light Rain
5:53 AM 52.0 °F 51.1 °F 97% 30.11 in 10.0 mi Calm Calm - 0.00 in   Mostly Cloudy
6:53 AM 51.1 °F 50.0 °F 96% 30.12 in 10.0 mi South 5.8 mph - N/A   Scattered Clouds
7:53 AM 53.1 °F 50.0 °F 89% 30.13 in 10.0 mi SSW 6.9 mph - N/A   Mostly Cloudy
8:53 AM 55.0 °F 50.0 °F 83% 30.14 in 10.0 mi South 8.1 mph - N/A   Mostly Cloudy
9:53 AM 59.0 °F 50.0 °F 72% 30.14 in 10.0 mi South 10.4 mph - N/A   Mostly Cloudy
10:53 AM 62.1 °F 50.0 °F 65% 30.15 in 10.0 mi SSW 12.7 mph - N/A   Mostly Cloudy
11:53 AM 64.0 °F 48.0 °F 56% 30.15 in 10.0 mi South 10.4 mph - N/A   Overcast
12:53 PM 64.9 °F 48.0 °F 54% 30.14 in 10.0 mi SSW 8.1 mph - N/A   Overcast
1:53 PM 66.9 °F 48.0 °F 51% 30.12 in 10.0 mi SSW 10.4 mph - N/A   Mostly Cloudy
2:53 PM 68.0 °F 46.9 °F 47% 30.09 in 10.0 mi SSW 13.8 mph - N/A   Mostly Cloudy
3:53 PM 66.0 °F 50.0 °F 56% 30.08 in 10.0 mi West 12.7 mph - N/A   Clear
4:53 PM 64.9 °F 51.1 °F 61% 30.07 in 10.0 mi West 10.4 mph - N/A   Clear
5:53 PM 63.0 °F 50.0 °F 63% 30.07 in 10.0 mi West 11.5 mph - N/A   Scattered Clouds
6:53 PM 61.0 °F 48.9 °F 64% 30.08 in 10.0 mi Variable 6.9 mph - N/A   Partly Cloudy
7:53 PM 59.0 °F 48.0 °F 67% 30.07 in 10.0 mi South 4.6 mph - N/A   Mostly Cloudy
8:53 PM 57.9 °F 48.0 °F 70% 30.09 in 10.0 mi West 6.9 mph - N/A   Clear
9:53 PM 57.0 °F 48.9 °F 74% 30.10 in 10.0 mi SW 6.9 mph - N/A   Clear
10:53 PM 57.0 °F 48.0 °F 72% 30.09 in 10.0 mi SSW 11.5 mph - N/A   Clear
11:53 PM 57.9 °F 48.0 °F 70% 30.10 in 10.0 mi SSW 9.2 mph - N/A   Mostly Cloudy